Year,Month,Day,Hour,Minute,Value (Times are PST for temperature in C)
2017,07,15,00,00,17.70
2017,07,15,00,01,17.70
2017,07,15,00,02,17.70
2017,07,15,00,03,17.70
2017,07,15,00,04,17.70
2017,07,15,00,05,17.70
2017,07,15,00,06,17.60
2017,07,15,00,07,17.60
2017,07,15,00,08,17.60
2017,07,15,00,09,17.60
2017,07,15,00,10,17.60
2017,07,15,00,11,17.60
2017,07,15,00,12,17.50
2017,07,15,00,13,17.50
2017,07,15,00,14,17.50
2017,07,15,00,15,17.50
2017,07,15,00,16,17.50
2017,07,15,00,17,17.50
2017,07,15,00,18,17.50
2017,07,15,00,19,17.50
2017,07,15,00,20,17.50
2017,07,15,00,21,17.40
2017,07,15,00,22,17.40
2017,07,15,00,23,17.40
2017,07,15,00,24,17.40
2017,07,15,00,25,17.40
2017,07,15,00,26,17.40
2017,07,15,00,27,17.40
2017,07,15,00,28,17.30
2017,07,15,00,29,17.30
2017,07,15,00,30,17.30
2017,07,15,00,31,17.30
2017,07,15,00,32,17.30
2017,07,15,00,33,17.30
2017,07,15,00,34,17.30
2017,07,15,00,35,17.30
2017,07,15,00,36,17.30
2017,07,15,00,37,17.30
2017,07,15,00,38,17.30
2017,07,15,00,39,17.30
2017,07,15,00,40,17.30
2017,07,15,00,41,17.20
2017,07,15,00,42,17.20
2017,07,15,00,43,17.20
2017,07,15,00,44,17.20
2017,07,15,00,45,17.20
2017,07,15,00,46,17.20
2017,07,15,00,47,17.10
2017,07,15,00,48,17.10
2017,07,15,00,49,17.10
2017,07,15,00,50,17.10
2017,07,15,00,51,17.10
2017,07,15,00,52,17.10
2017,07,15,00,53,17.10
2017,07,15,00,54,17.10
2017,07,15,00,55,17.10
2017,07,15,00,56,17.00
2017,07,15,00,57,17.10
2017,07,15,00,58,17.00
2017,07,15,00,59,17.00
2017,07,15,01,00,17.00
2017,07,15,01,01,17.00
2017,07,15,01,02,17.00
2017,07,15,01,03,17.00
2017,07,15,01,04,17.00
2017,07,15,01,05,17.00
2017,07,15,01,06,17.00
2017,07,15,01,07,16.90
2017,07,15,01,08,16.90
2017,07,15,01,09,16.90
2017,07,15,01,10,16.90
2017,07,15,01,11,16.90
2017,07,15,01,12,16.90
2017,07,15,01,13,16.90
2017,07,15,01,14,16.80
2017,07,15,01,15,16.80
2017,07,15,01,16,16.80
2017,07,15,01,17,16.80
2017,07,15,01,18,16.80
2017,07,15,01,19,16.80
2017,07,15,01,20,16.80
2017,07,15,01,21,16.80
2017,07,15,01,22,16.80
2017,07,15,01,23,16.80
2017,07,15,01,24,16.80
2017,07,15,01,25,16.80
2017,07,15,01,26,16.80
2017,07,15,01,27,16.80
2017,07,15,01,28,16.70
2017,07,15,01,29,16.70
2017,07,15,01,30,16.70
2017,07,15,01,31,16.70
2017,07,15,01,32,16.70
2017,07,15,01,33,16.70
2017,07,15,01,34,16.70
2017,07,15,01,35,16.60
2017,07,15,01,36,16.60
2017,07,15,01,37,16.60
2017,07,15,01,38,16.60
2017,07,15,01,39,16.60
2017,07,15,01,40,16.60
2017,07,15,01,41,16.50
2017,07,15,01,42,16.50
2017,07,15,01,43,16.50
2017,07,15,01,44,16.50
2017,07,15,01,45,16.40
2017,07,15,01,46,16.40
2017,07,15,01,47,16.40
2017,07,15,01,48,16.40
2017,07,15,01,49,16.40
2017,07,15,01,50,16.40
2017,07,15,01,51,16.40
2017,07,15,01,52,16.40
2017,07,15,01,53,16.30
2017,07,15,01,54,16.30
2017,07,15,01,55,16.30
2017,07,15,01,56,16.30
2017,07,15,01,57,16.30
2017,07,15,01,58,16.30
2017,07,15,01,59,16.30
2017,07,15,02,00,16.30
2017,07,15,02,01,16.30
2017,07,15,02,02,16.30
2017,07,15,02,03,16.30
2017,07,15,02,04,16.30
2017,07,15,02,05,16.30
2017,07,15,02,06,16.30
2017,07,15,02,07,16.30
2017,07,15,02,08,16.30
2017,07,15,02,09,16.30
2017,07,15,02,10,16.30
2017,07,15,02,11,16.30
2017,07,15,02,12,16.40
2017,07,15,02,13,16.40
2017,07,15,02,14,16.40
2017,07,15,02,15,16.50
2017,07,15,02,16,16.60
2017,07,15,02,17,16.60
2017,07,15,02,18,16.60
2017,07,15,02,19,16.60
2017,07,15,02,20,16.60
2017,07,15,02,21,16.70
2017,07,15,02,22,16.70
2017,07,15,02,23,16.70
2017,07,15,02,24,16.70
2017,07,15,02,25,16.70
2017,07,15,02,26,16.80
2017,07,15,02,27,16.80
2017,07,15,02,28,16.80
2017,07,15,02,29,16.80
2017,07,15,02,30,16.80
2017,07,15,02,31,16.80
2017,07,15,02,32,16.80
2017,07,15,02,33,16.80
2017,07,15,02,34,16.80
2017,07,15,02,35,16.80
2017,07,15,02,36,16.80
2017,07,15,02,37,16.80
2017,07,15,02,38,16.80
2017,07,15,02,39,16.80
2017,07,15,02,40,16.80
2017,07,15,02,41,16.80
2017,07,15,02,42,16.80
2017,07,15,02,43,16.80
2017,07,15,02,44,16.70
2017,07,15,02,45,16.70
2017,07,15,02,46,16.80
2017,07,15,02,47,16.80
2017,07,15,02,48,16.80
2017,07,15,02,49,16.80
2017,07,15,02,50,16.80
2017,07,15,02,51,16.80
2017,07,15,02,52,16.70
2017,07,15,02,53,16.70
2017,07,15,02,54,16.70
2017,07,15,02,55,16.70
2017,07,15,02,56,16.60
2017,07,15,02,57,16.60
2017,07,15,02,58,16.50
2017,07,15,02,59,16.50
2017,07,15,03,00,16.40
2017,07,15,03,01,16.40
2017,07,15,03,02,16.40
2017,07,15,03,03,16.30
2017,07,15,03,04,16.30
2017,07,15,03,05,16.30
2017,07,15,03,06,16.20
2017,07,15,03,07,16.20
2017,07,15,03,08,16.20
2017,07,15,03,09,16.20
2017,07,15,03,10,16.10
2017,07,15,03,11,16.10
2017,07,15,03,12,16.10
2017,07,15,03,13,16.10
2017,07,15,03,14,16.00
2017,07,15,03,15,16.00
2017,07,15,03,16,16.00
2017,07,15,03,17,15.90
2017,07,15,03,18,15.90
2017,07,15,03,19,15.90
2017,07,15,03,20,15.90
2017,07,15,03,21,15.80
2017,07,15,03,22,15.80
2017,07,15,03,23,15.80
2017,07,15,03,24,15.80
2017,07,15,03,25,15.80
2017,07,15,03,26,15.80
2017,07,15,03,27,15.70
2017,07,15,03,28,15.70
2017,07,15,03,29,15.70
2017,07,15,03,30,15.70
2017,07,15,03,31,15.70
2017,07,15,03,32,15.60
2017,07,15,03,33,15.60
2017,07,15,03,34,15.60
2017,07,15,03,35,15.60
2017,07,15,03,36,15.50
2017,07,15,03,37,15.50
2017,07,15,03,38,15.50
2017,07,15,03,39,15.40
2017,07,15,03,40,15.40
2017,07,15,03,41,15.40
2017,07,15,03,42,15.40
2017,07,15,03,43,15.40
2017,07,15,03,44,15.40
2017,07,15,03,45,15.30
2017,07,15,03,46,15.30
2017,07,15,03,47,15.30
2017,07,15,03,48,15.30
2017,07,15,03,49,15.30
2017,07,15,03,50,15.20
2017,07,15,03,51,15.20
2017,07,15,03,52,15.20
2017,07,15,03,53,15.20
2017,07,15,03,54,15.20
2017,07,15,03,55,15.10
2017,07,15,03,56,15.10
2017,07,15,03,57,15.10
2017,07,15,03,58,15.10
2017,07,15,03,59,15.10
2017,07,15,04,00,15.10
2017,07,15,04,01,15.10
2017,07,15,04,02,15.10
2017,07,15,04,03,15.00
2017,07,15,04,04,15.00
2017,07,15,04,05,15.00
2017,07,15,04,06,15.00
2017,07,15,04,07,15.00
2017,07,15,04,08,15.00
2017,07,15,04,09,15.00
2017,07,15,04,10,14.90
2017,07,15,04,11,14.90
2017,07,15,04,12,14.90
2017,07,15,04,13,14.80
2017,07,15,04,14,14.80
2017,07,15,04,15,14.70
2017,07,15,04,16,14.70
2017,07,15,04,17,14.60
2017,07,15,04,18,14.60
2017,07,15,04,19,14.50
2017,07,15,04,20,14.40
2017,07,15,04,21,14.40
2017,07,15,04,22,14.40
2017,07,15,04,23,14.30
2017,07,15,04,24,14.30
2017,07,15,04,25,14.30
2017,07,15,04,26,14.30
2017,07,15,04,27,14.30
2017,07,15,04,28,14.20
2017,07,15,04,29,14.20
2017,07,15,04,30,14.20
2017,07,15,04,31,14.20
2017,07,15,04,32,14.20
2017,07,15,04,33,14.10
2017,07,15,04,34,14.10
2017,07,15,04,35,14.10
2017,07,15,04,36,14.10
2017,07,15,04,37,14.10
2017,07,15,04,38,14.10
2017,07,15,04,39,14.10
2017,07,15,04,40,14.10
2017,07,15,04,41,14.10
2017,07,15,04,42,14.10
2017,07,15,04,43,14.10
2017,07,15,04,44,14.00
2017,07,15,04,45,14.00
2017,07,15,04,46,13.90
2017,07,15,04,47,13.90
2017,07,15,04,48,13.90
2017,07,15,04,49,13.90
2017,07,15,04,50,13.80
2017,07,15,04,51,13.80
2017,07,15,04,52,13.80
2017,07,15,04,53,13.80
2017,07,15,04,54,13.80
2017,07,15,04,55,13.80
2017,07,15,04,56,13.80
2017,07,15,04,57,13.80
2017,07,15,04,58,13.80
2017,07,15,04,59,13.80
2017,07,15,05,00,13.80
2017,07,15,05,01,13.80
2017,07,15,05,02,13.80
2017,07,15,05,03,13.80
2017,07,15,05,04,13.80
2017,07,15,05,05,13.80
2017,07,15,05,06,13.90
2017,07,15,05,07,13.90
2017,07,15,05,08,13.90
2017,07,15,05,09,13.90
2017,07,15,05,10,13.80
2017,07,15,05,11,13.80
2017,07,15,05,12,13.80
2017,07,15,05,13,13.80
2017,07,15,05,14,13.80
2017,07,15,05,15,13.80
2017,07,15,05,16,13.80
2017,07,15,05,17,13.80
2017,07,15,05,18,13.80
2017,07,15,05,19,13.80
2017,07,15,05,20,13.80
2017,07,15,05,21,13.90
2017,07,15,05,22,13.80
2017,07,15,05,23,13.80
2017,07,15,05,24,13.80
2017,07,15,05,25,13.80
2017,07,15,05,26,13.80
2017,07,15,05,27,13.80
2017,07,15,05,28,13.90
2017,07,15,05,29,13.90
2017,07,15,05,30,13.90
2017,07,15,05,31,13.90
2017,07,15,05,32,13.90
2017,07,15,05,33,13.90
2017,07,15,05,34,14.00
2017,07,15,05,35,14.00
2017,07,15,05,36,14.00
2017,07,15,05,37,14.00
2017,07,15,05,38,14.00
2017,07,15,05,39,14.00
2017,07,15,05,40,14.00
2017,07,15,05,41,14.00
2017,07,15,05,42,14.00
2017,07,15,05,43,14.00
2017,07,15,05,44,14.00
2017,07,15,05,45,14.00
2017,07,15,05,46,14.00
2017,07,15,05,47,14.10
2017,07,15,05,48,14.10
2017,07,15,05,49,14.10
2017,07,15,05,50,14.10
2017,07,15,05,51,14.10
2017,07,15,05,52,14.10
2017,07,15,05,53,14.10
2017,07,15,05,54,14.10
2017,07,15,05,55,14.10
2017,07,15,05,56,14.10
2017,07,15,05,57,14.10
2017,07,15,05,58,14.10
2017,07,15,05,59,14.10
2017,07,15,06,00,14.10
2017,07,15,06,01,14.10
2017,07,15,06,02,14.10
2017,07,15,06,03,14.10
2017,07,15,06,04,14.10
2017,07,15,06,05,14.10
2017,07,15,06,06,14.10
2017,07,15,06,07,14.10
2017,07,15,06,08,14.10
2017,07,15,06,09,14.10
2017,07,15,06,10,14.10
2017,07,15,06,11,14.10
2017,07,15,06,12,14.10
2017,07,15,06,13,14.10
2017,07,15,06,14,14.10
2017,07,15,06,15,14.10
2017,07,15,06,16,14.10
2017,07,15,06,17,14.10
2017,07,15,06,18,14.10
2017,07,15,06,19,14.10
2017,07,15,06,20,14.10
2017,07,15,06,21,14.10
2017,07,15,06,22,14.10
2017,07,15,06,23,14.10
2017,07,15,06,24,14.10
2017,07,15,06,25,14.10
2017,07,15,06,26,14.10
2017,07,15,06,27,14.10
2017,07,15,06,28,14.10
2017,07,15,06,29,14.10
2017,07,15,06,30,14.10
2017,07,15,06,31,14.10
2017,07,15,06,32,14.10
2017,07,15,06,33,14.20
2017,07,15,06,34,14.20
2017,07,15,06,35,14.20
2017,07,15,06,36,14.20
2017,07,15,06,37,14.20
2017,07,15,06,38,14.20
2017,07,15,06,39,14.20
2017,07,15,06,40,14.20
2017,07,15,06,41,14.20
2017,07,15,06,42,14.20
2017,07,15,06,43,14.20
2017,07,15,06,44,14.20
2017,07,15,06,45,14.30
2017,07,15,06,46,14.30
2017,07,15,06,47,14.30
2017,07,15,06,48,14.30
2017,07,15,06,49,14.30
2017,07,15,06,50,14.30
2017,07,15,06,51,14.30
2017,07,15,06,52,14.30
2017,07,15,06,53,14.40
2017,07,15,06,54,14.40
2017,07,15,06,55,14.40
2017,07,15,06,56,14.40
2017,07,15,06,57,14.40
2017,07,15,06,58,14.40
2017,07,15,06,59,14.40
2017,07,15,07,00,14.50
2017,07,15,07,01,14.50
2017,07,15,07,02,14.50
2017,07,15,07,03,14.50
2017,07,15,07,04,14.50
2017,07,15,07,05,14.50
2017,07,15,07,06,14.50
2017,07,15,07,07,14.50
2017,07,15,07,08,14.50
2017,07,15,07,09,14.50
2017,07,15,07,10,14.50
2017,07,15,07,11,14.50
2017,07,15,07,12,14.50
2017,07,15,07,13,14.50
2017,07,15,07,14,14.60
2017,07,15,07,15,14.60
2017,07,15,07,16,14.60
2017,07,15,07,17,14.60
2017,07,15,07,18,14.60
2017,07,15,07,19,14.60
2017,07,15,07,20,14.60
2017,07,15,07,21,14.70
2017,07,15,07,22,14.70
2017,07,15,07,23,14.70
2017,07,15,07,24,14.70
2017,07,15,07,25,14.70
2017,07,15,07,26,14.80
2017,07,15,07,27,14.80
2017,07,15,07,28,14.80
2017,07,15,07,29,14.80
2017,07,15,07,30,14.80
2017,07,15,07,31,14.80
2017,07,15,07,32,14.80
2017,07,15,07,33,14.80
2017,07,15,07,34,14.80
2017,07,15,07,35,14.90
2017,07,15,07,36,14.90
2017,07,15,07,37,14.90
2017,07,15,07,38,14.90
2017,07,15,07,39,14.90
2017,07,15,07,40,15.00
2017,07,15,07,41,15.00
2017,07,15,07,42,15.00
2017,07,15,07,43,15.00
2017,07,15,07,44,15.10
2017,07,15,07,45,15.10
2017,07,15,07,46,15.10
2017,07,15,07,47,15.20
2017,07,15,07,48,15.20
2017,07,15,07,49,15.20
2017,07,15,07,50,15.30
2017,07,15,07,51,15.30
2017,07,15,07,52,15.30
2017,07,15,07,53,15.40
2017,07,15,07,54,15.40
2017,07,15,07,55,15.40
2017,07,15,07,56,15.40
2017,07,15,07,57,15.50
2017,07,15,07,58,15.50
2017,07,15,07,59,15.60
2017,07,15,08,00,15.60
2017,07,15,08,01,15.60
2017,07,15,08,02,15.60
2017,07,15,08,03,15.60
2017,07,15,08,04,15.70
2017,07,15,08,05,15.70
2017,07,15,08,06,15.70
2017,07,15,08,07,15.70
2017,07,15,08,08,15.70
2017,07,15,08,09,15.80
2017,07,15,08,10,15.70
2017,07,15,08,11,15.70
2017,07,15,08,12,15.70
2017,07,15,08,13,15.70
2017,07,15,08,14,15.80
2017,07,15,08,15,15.80
2017,07,15,08,16,15.80
2017,07,15,08,17,15.80
2017,07,15,08,18,15.90
2017,07,15,08,19,15.90
2017,07,15,08,20,16.00
2017,07,15,08,21,16.00
2017,07,15,08,22,16.00
2017,07,15,08,23,16.10
2017,07,15,08,24,16.10
2017,07,15,08,25,16.10
2017,07,15,08,26,16.10
2017,07,15,08,27,16.20
2017,07,15,08,28,16.20
2017,07,15,08,29,16.30
2017,07,15,08,30,16.30
2017,07,15,08,31,16.30
2017,07,15,08,32,16.40
2017,07,15,08,33,16.40
2017,07,15,08,34,16.40
2017,07,15,08,35,16.50
2017,07,15,08,36,16.50
2017,07,15,08,37,16.60
2017,07,15,08,38,16.60
2017,07,15,08,39,16.60
2017,07,15,08,40,16.60
2017,07,15,08,41,16.60
2017,07,15,08,42,16.50
2017,07,15,08,43,16.50
2017,07,15,08,44,16.50
2017,07,15,08,45,16.40
2017,07,15,08,46,16.50
2017,07,15,08,47,16.40
2017,07,15,08,48,16.50
2017,07,15,08,49,16.50
2017,07,15,08,50,16.50
2017,07,15,08,51,16.60
2017,07,15,08,52,16.60
2017,07,15,08,53,16.60
2017,07,15,08,54,16.70
2017,07,15,08,55,16.70
2017,07,15,08,56,16.80
2017,07,15,08,57,16.80
2017,07,15,08,58,16.90
2017,07,15,08,59,17.00
2017,07,15,09,00,17.00
2017,07,15,09,01,17.10
2017,07,15,09,02,17.10
2017,07,15,09,03,17.20
2017,07,15,09,04,17.20
2017,07,15,09,05,17.20
2017,07,15,09,06,17.10
2017,07,15,09,07,17.10
2017,07,15,09,08,17.10
2017,07,15,09,09,17.10
2017,07,15,09,10,17.10
2017,07,15,09,11,17.10
2017,07,15,09,12,17.20
2017,07,15,09,13,17.20
2017,07,15,09,14,17.20
2017,07,15,09,15,17.20
2017,07,15,09,16,17.30
2017,07,15,09,17,17.30
2017,07,15,09,18,17.40
2017,07,15,09,19,17.40
2017,07,15,09,20,17.40
2017,07,15,09,21,17.40
2017,07,15,09,22,17.40
2017,07,15,09,23,17.30
2017,07,15,09,24,17.30
2017,07,15,09,25,17.30
2017,07,15,09,26,17.30
2017,07,15,09,27,17.30
2017,07,15,09,28,17.30
2017,07,15,09,29,17.40
2017,07,15,09,30,17.40
2017,07,15,09,31,17.50
2017,07,15,09,32,17.50
2017,07,15,09,33,17.50
2017,07,15,09,34,17.50
2017,07,15,09,35,17.50
2017,07,15,09,36,17.50
2017,07,15,09,37,17.60
2017,07,15,09,38,17.60
2017,07,15,09,39,17.60
2017,07,15,09,40,17.60
2017,07,15,09,41,17.70
2017,07,15,09,42,17.70
2017,07,15,09,43,17.70
2017,07,15,09,44,17.70
2017,07,15,09,45,17.70
2017,07,15,09,46,17.70
2017,07,15,09,47,17.70
2017,07,15,09,48,17.70
2017,07,15,09,49,17.80
2017,07,15,09,50,17.80
2017,07,15,09,51,17.80
2017,07,15,09,52,17.80
2017,07,15,09,53,17.80
2017,07,15,09,54,17.80
2017,07,15,09,55,17.80
2017,07,15,09,56,17.80
2017,07,15,09,57,17.90
2017,07,15,09,58,17.90
2017,07,15,09,59,17.90
2017,07,15,10,00,18.00
2017,07,15,10,01,18.00
2017,07,15,10,02,18.00
2017,07,15,10,03,18.00
2017,07,15,10,04,18.10
2017,07,15,10,05,18.10
2017,07,15,10,06,18.10
2017,07,15,10,07,18.10
2017,07,15,10,08,18.10
2017,07,15,10,09,18.10
2017,07,15,10,10,18.10
2017,07,15,10,11,18.10
2017,07,15,10,12,18.10
2017,07,15,10,13,18.10
2017,07,15,10,14,18.00
2017,07,15,10,15,17.90
2017,07,15,10,16,17.90
2017,07,15,10,17,17.80
2017,07,15,10,18,17.70
2017,07,15,10,19,17.70
2017,07,15,10,20,17.70
2017,07,15,10,21,17.70
2017,07,15,10,22,17.70
2017,07,15,10,23,17.70
2017,07,15,10,24,17.60
2017,07,15,10,25,17.70
2017,07,15,10,26,17.70
2017,07,15,10,27,17.80
2017,07,15,10,28,17.80
2017,07,15,10,29,17.90
2017,07,15,10,30,17.90
2017,07,15,10,31,18.00
2017,07,15,10,32,18.00
2017,07,15,10,33,18.10
2017,07,15,10,34,18.10
2017,07,15,10,35,18.20
2017,07,15,10,36,18.20
2017,07,15,10,37,18.20
2017,07,15,10,38,18.30
2017,07,15,10,39,18.30
2017,07,15,10,40,18.30
2017,07,15,10,41,18.40
2017,07,15,10,42,18.40
2017,07,15,10,43,18.40
2017,07,15,10,44,18.40
2017,07,15,10,45,18.50
2017,07,15,10,46,18.50
2017,07,15,10,47,18.60
2017,07,15,10,48,18.60
2017,07,15,10,49,18.70
2017,07,15,10,50,18.70
2017,07,15,10,51,18.60
2017,07,15,10,52,18.60
2017,07,15,10,53,18.60
2017,07,15,10,54,18.60
2017,07,15,10,55,18.60
2017,07,15,10,56,18.60
2017,07,15,10,57,18.60
2017,07,15,10,58,18.60
2017,07,15,10,59,18.60
2017,07,15,11,00,18.60
2017,07,15,11,01,18.60
2017,07,15,11,02,18.60
2017,07,15,11,03,18.60
2017,07,15,11,04,18.60
2017,07,15,11,05,18.60
2017,07,15,11,06,18.60
2017,07,15,11,07,18.70
2017,07,15,11,08,18.70
2017,07,15,11,09,18.70
2017,07,15,11,10,18.70
2017,07,15,11,11,18.70
2017,07,15,11,12,18.80
2017,07,15,11,13,18.80
2017,07,15,11,14,18.80
2017,07,15,11,15,18.80
2017,07,15,11,16,18.80
2017,07,15,11,17,18.80
2017,07,15,11,18,18.80
2017,07,15,11,19,18.80
2017,07,15,11,20,18.80
2017,07,15,11,21,18.80
2017,07,15,11,22,18.80
2017,07,15,11,23,18.80
2017,07,15,11,24,18.80
2017,07,15,11,25,18.80
2017,07,15,11,26,18.80
2017,07,15,11,27,18.80
2017,07,15,11,28,18.80
2017,07,15,11,29,18.90
2017,07,15,11,30,18.90
2017,07,15,11,31,19.00
2017,07,15,11,32,19.00
2017,07,15,11,33,19.00
2017,07,15,11,34,19.10
2017,07,15,11,35,19.10
2017,07,15,11,36,19.10
2017,07,15,11,37,19.10
2017,07,15,11,38,19.10
2017,07,15,11,39,19.10
2017,07,15,11,40,19.10
2017,07,15,11,41,19.00
2017,07,15,11,42,19.00
2017,07,15,11,43,18.90
2017,07,15,11,44,19.00
2017,07,15,11,45,19.00
2017,07,15,11,46,19.00
2017,07,15,11,47,19.00
2017,07,15,11,48,19.10
2017,07,15,11,49,19.00
2017,07,15,11,50,19.00
2017,07,15,11,51,19.10
2017,07,15,11,52,19.10
2017,07,15,11,53,19.10
2017,07,15,11,54,19.20
2017,07,15,11,55,19.20
2017,07,15,11,56,19.20
2017,07,15,11,57,19.30
2017,07,15,11,58,19.30
2017,07,15,11,59,19.30
2017,07,15,12,00,19.30
2017,07,15,12,01,19.20
2017,07,15,12,02,19.30
2017,07,15,12,03,19.30
2017,07,15,12,04,19.30
2017,07,15,12,05,19.30
2017,07,15,12,06,19.30
2017,07,15,12,07,19.30
2017,07,15,12,08,19.30
2017,07,15,12,09,19.30
2017,07,15,12,10,19.30
2017,07,15,12,11,19.30
2017,07,15,12,12,19.30
2017,07,15,12,13,19.30
2017,07,15,12,14,19.40
2017,07,15,12,15,19.40
2017,07,15,12,16,19.40
2017,07,15,12,17,19.50
2017,07,15,12,18,19.50
2017,07,15,12,19,19.60
2017,07,15,12,20,19.60
2017,07,15,12,21,19.70
2017,07,15,12,22,19.70
2017,07,15,12,23,19.70
2017,07,15,12,24,19.70
2017,07,15,12,25,19.70
2017,07,15,12,26,19.70
2017,07,15,12,27,19.60
2017,07,15,12,28,19.50
2017,07,15,12,29,19.50
2017,07,15,12,30,19.50
2017,07,15,12,31,19.60
2017,07,15,12,32,19.60
2017,07,15,12,33,19.60
2017,07,15,12,34,19.60
2017,07,15,12,35,19.70
2017,07,15,12,36,19.70
2017,07,15,12,37,19.70
2017,07,15,12,38,19.70
2017,07,15,12,39,19.70
2017,07,15,12,40,19.70
2017,07,15,12,41,19.70
2017,07,15,12,42,19.70
2017,07,15,12,43,19.70
2017,07,15,12,44,19.70
2017,07,15,12,45,19.70
2017,07,15,12,46,19.70
2017,07,15,12,47,19.80
2017,07,15,12,48,19.80
2017,07,15,12,49,19.90
2017,07,15,12,50,19.90
2017,07,15,12,51,19.90
2017,07,15,12,52,19.90
2017,07,15,12,53,19.90
2017,07,15,12,54,20.00
2017,07,15,12,55,20.00
2017,07,15,12,56,20.00
2017,07,15,12,57,20.00
2017,07,15,12,58,20.00
2017,07,15,12,59,20.00
2017,07,15,13,00,20.00
2017,07,15,13,01,20.00
2017,07,15,13,02,20.00
2017,07,15,13,03,20.00
2017,07,15,13,04,19.90
2017,07,15,13,05,19.90
2017,07,15,13,06,19.90
2017,07,15,13,07,19.90
2017,07,15,13,08,19.90
2017,07,15,13,09,19.90
2017,07,15,13,10,19.80
2017,07,15,13,11,19.90
2017,07,15,13,12,19.90
2017,07,15,13,13,19.90
2017,07,15,13,14,19.90
2017,07,15,13,15,19.90
2017,07,15,13,16,19.90
2017,07,15,13,17,19.90
2017,07,15,13,18,19.90
2017,07,15,13,19,20.00
2017,07,15,13,20,20.00
2017,07,15,13,21,20.10
2017,07,15,13,22,20.10
2017,07,15,13,23,20.10
2017,07,15,13,24,20.10
2017,07,15,13,25,20.10
2017,07,15,13,26,20.10
2017,07,15,13,27,20.20
2017,07,15,13,28,20.20
2017,07,15,13,29,20.30
2017,07,15,13,30,20.30
2017,07,15,13,31,20.30
2017,07,15,13,32,20.30
2017,07,15,13,33,20.40
2017,07,15,13,34,20.40
2017,07,15,13,35,20.40
2017,07,15,13,36,20.40
2017,07,15,13,37,20.40
2017,07,15,13,38,20.40
2017,07,15,13,39,20.40
2017,07,15,13,40,20.50
2017,07,15,13,41,20.50
2017,07,15,13,42,20.60
2017,07,15,13,43,20.60
2017,07,15,13,44,20.70
2017,07,15,13,45,20.70
2017,07,15,13,46,20.70
2017,07,15,13,47,20.80
2017,07,15,13,48,20.80
2017,07,15,13,49,20.80
2017,07,15,13,50,20.80
2017,07,15,13,51,20.80
2017,07,15,13,52,20.80
2017,07,15,13,53,20.90
2017,07,15,13,54,20.90
2017,07,15,13,55,20.90
2017,07,15,13,56,20.90
2017,07,15,13,57,20.90
2017,07,15,13,58,20.80
2017,07,15,13,59,20.80
2017,07,15,14,00,20.80
2017,07,15,14,01,20.80
2017,07,15,14,02,20.80
2017,07,15,14,03,20.80
2017,07,15,14,04,20.70
2017,07,15,14,05,20.70
2017,07,15,14,06,20.80
2017,07,15,14,07,20.90
2017,07,15,14,08,20.90
2017,07,15,14,09,20.80
2017,07,15,14,10,20.80
2017,07,15,14,11,20.90
2017,07,15,14,12,20.90
2017,07,15,14,13,20.90
2017,07,15,14,14,20.90
2017,07,15,14,15,20.90
2017,07,15,14,16,20.90
2017,07,15,14,17,20.90
2017,07,15,14,18,20.90
2017,07,15,14,19,20.80
2017,07,15,14,20,20.90
2017,07,15,14,21,20.80
2017,07,15,14,22,20.80
2017,07,15,14,23,20.80
2017,07,15,14,24,20.80
2017,07,15,14,25,20.80
2017,07,15,14,26,20.90
2017,07,15,14,27,20.90
2017,07,15,14,28,20.90
2017,07,15,14,29,20.90
2017,07,15,14,30,20.90
2017,07,15,14,31,21.00
2017,07,15,14,32,21.00
2017,07,15,14,33,21.00
2017,07,15,14,34,20.90
2017,07,15,14,35,20.80
2017,07,15,14,36,20.80
2017,07,15,14,37,20.80
2017,07,15,14,38,20.90
2017,07,15,14,39,20.90
2017,07,15,14,40,20.90
2017,07,15,14,41,21.00
2017,07,15,14,42,21.00
2017,07,15,14,43,21.00
2017,07,15,14,44,21.00
2017,07,15,14,45,21.00
2017,07,15,14,46,21.00
2017,07,15,14,47,20.90
2017,07,15,14,48,20.90
2017,07,15,14,49,20.90
2017,07,15,14,50,20.90
2017,07,15,14,51,20.90
2017,07,15,14,52,20.90
2017,07,15,14,53,20.90
2017,07,15,14,54,20.80
2017,07,15,14,55,20.80
2017,07,15,14,56,20.80
2017,07,15,14,57,20.80
2017,07,15,14,58,20.80
2017,07,15,14,59,20.70
2017,07,15,15,00,20.60
2017,07,15,15,01,20.60
2017,07,15,15,02,20.50
2017,07,15,15,03,20.60
2017,07,15,15,04,20.60
2017,07,15,15,05,20.60
2017,07,15,15,06,20.60
2017,07,15,15,07,20.60
2017,07,15,15,08,20.70
2017,07,15,15,09,20.70
2017,07,15,15,10,20.70
2017,07,15,15,11,20.70
2017,07,15,15,12,20.80
2017,07,15,15,13,20.80
2017,07,15,15,14,20.80
2017,07,15,15,15,20.80
2017,07,15,15,16,20.80
2017,07,15,15,17,20.80
2017,07,15,15,18,20.80
2017,07,15,15,19,20.80
2017,07,15,15,20,20.80
2017,07,15,15,21,20.80
2017,07,15,15,22,20.70
2017,07,15,15,23,20.60
2017,07,15,15,24,20.60
2017,07,15,15,25,20.60
2017,07,15,15,26,20.60
2017,07,15,15,27,20.60
2017,07,15,15,28,20.60
2017,07,15,15,29,20.50
2017,07,15,15,30,20.50
2017,07,15,15,31,20.40
2017,07,15,15,32,20.40
2017,07,15,15,33,20.40
2017,07,15,15,34,20.50
2017,07,15,15,35,20.60
2017,07,15,15,36,20.60
2017,07,15,15,37,20.60
2017,07,15,15,38,20.60
2017,07,15,15,39,20.60
2017,07,15,15,40,20.60
2017,07,15,15,41,20.60
2017,07,15,15,42,20.60
2017,07,15,15,43,20.50
2017,07,15,15,44,20.50
2017,07,15,15,45,20.40
2017,07,15,15,46,20.30
2017,07,15,15,47,20.20
2017,07,15,15,48,20.20
2017,07,15,15,49,20.20
2017,07,15,15,50,20.20
2017,07,15,15,51,20.20
2017,07,15,15,52,20.30
2017,07,15,15,53,20.30
2017,07,15,15,54,20.40
2017,07,15,15,55,20.40
2017,07,15,15,56,20.40
2017,07,15,15,57,20.30
2017,07,15,15,58,20.30
2017,07,15,15,59,20.30
2017,07,15,16,00,20.30
2017,07,15,16,01,20.30
2017,07,15,16,02,20.30
2017,07,15,16,03,20.30
2017,07,15,16,04,20.30
2017,07,15,16,05,20.30
2017,07,15,16,06,20.30
2017,07,15,16,07,20.30
2017,07,15,16,08,20.30
2017,07,15,16,09,20.30
2017,07,15,16,10,20.30
2017,07,15,16,11,20.30
2017,07,15,16,12,20.30
2017,07,15,16,13,20.30
2017,07,15,16,14,20.40
2017,07,15,16,15,20.40
2017,07,15,16,16,20.40
2017,07,15,16,17,20.50
2017,07,15,16,18,20.60
2017,07,15,16,19,20.50
2017,07,15,16,20,20.40
2017,07,15,16,21,20.30
2017,07,15,16,22,20.30
2017,07,15,16,23,20.30
2017,07,15,16,24,20.40
2017,07,15,16,25,20.40
2017,07,15,16,26,20.40
2017,07,15,16,27,20.40
2017,07,15,16,28,20.40
2017,07,15,16,29,20.40
2017,07,15,16,30,20.40
2017,07,15,16,31,20.40
2017,07,15,16,32,20.40
2017,07,15,16,33,20.40
2017,07,15,16,34,20.30
2017,07,15,16,35,20.30
2017,07,15,16,36,20.30
2017,07,15,16,37,20.30
2017,07,15,16,38,20.30
2017,07,15,16,39,20.40
2017,07,15,16,40,20.30
2017,07,15,16,41,20.30
2017,07,15,16,42,20.20
2017,07,15,16,43,20.10
2017,07,15,16,44,20.10
2017,07,15,16,45,20.00
2017,07,15,16,46,20.00
2017,07,15,16,47,20.00
2017,07,15,16,48,20.00
2017,07,15,16,49,20.00
2017,07,15,16,50,20.00
2017,07,15,16,51,20.00
2017,07,15,16,52,20.10
2017,07,15,16,53,20.10
2017,07,15,16,54,20.00
2017,07,15,16,55,20.00
2017,07,15,16,56,20.00
2017,07,15,16,57,20.00
2017,07,15,16,58,19.90
2017,07,15,16,59,19.90
2017,07,15,17,00,19.90
2017,07,15,17,01,19.90
2017,07,15,17,02,19.90
2017,07,15,17,03,19.90
2017,07,15,17,04,19.90
2017,07,15,17,05,19.90
2017,07,15,17,06,20.00
2017,07,15,17,07,20.10
2017,07,15,17,08,20.10
2017,07,15,17,09,20.10
2017,07,15,17,10,20.10
2017,07,15,17,11,20.10
2017,07,15,17,12,20.10
2017,07,15,17,13,20.20
2017,07,15,17,14,20.20
2017,07,15,17,15,20.20
2017,07,15,17,16,20.30
2017,07,15,17,17,20.30
2017,07,15,17,18,20.30
2017,07,15,17,19,20.30